VCP85W EGLL-EGPH

Flight info

Callsign VCP85W
Flight time 0h 59m
Altitude 32000
Route ULTIB T420 TNT UN57 POL UN601 RIBEL DCT INPIP
Aircraft A319/M-SDE3FGHIRWY/LB1

Departure

Time 2026-04-22 10:07
Airport London Heathrow Airport (EGLL)

Arrival

Time 2026-04-22 11:06
Airport Edinburgh Airport (EGPH)
Time Latitude Longitude Altitude Speed Heading
2026-04-22 09:22 51.46926 -0.48789 89 ft 0 kts 359°
2026-04-22 09:57 51.46913 -0.48789 89 ft 4 kts 359°
2026-04-22 09:58 51.46892 -0.48791 87 ft 4 kts 32°
2026-04-22 09:58 51.46877 -0.48823 90 ft 4 kts 80°
2026-04-22 09:58 51.46875 -0.48838 87 ft 3 kts 89°
2026-04-22 09:58 51.46876 -0.48795 87 ft 4 kts 89°
2026-04-22 09:59 51.46876 -0.48775 89 ft 0 kts 89°
2026-04-22 10:02 51.46871 -0.48758 87 ft 3 kts 123°
2026-04-22 10:02 51.46840 -0.48751 87 ft 7 kts 183°
2026-04-22 10:02 51.46808 -0.48752 87 ft 0 kts 180°
2026-04-22 10:03 51.46789 -0.48752 87 ft 6 kts 180°
2026-04-22 10:03 51.46728 -0.48751 87 ft 12 kts 179°
2026-04-22 10:03 51.46630 -0.48755 88 ft 13 kts 189°
2026-04-22 10:04 51.46601 -0.48770 91 ft 0 kts 200°
2026-04-22 10:04 51.46596 -0.48773 90 ft 2 kts 200°
2026-04-22 10:05 51.46566 -0.48787 89 ft 7 kts 192°
2026-04-22 10:05 51.46501 -0.48763 89 ft 12 kts 141°
2026-04-22 10:05 51.46478 -0.48645 88 ft 0 kts 90°
2026-04-22 10:06 51.46478 -0.48557 88 ft 19 kts 90°
2026-04-22 10:06 51.46479 -0.48026 87 ft 87 kts 90°
2026-04-22 10:07 51.46485 -0.46684 139 ft 145 kts 89°
2026-04-22 10:07 51.46483 -0.45085 919 ft 144 kts 89°
2026-04-22 10:07 51.46491 -0.43464 1769 ft 145 kts 89°
2026-04-22 10:07 51.46570 -0.41736 2338 ft 168 kts 77°
2026-04-22 10:08 51.47177 -0.39994 2828 ft 196 kts 55°
2026-04-22 10:08 51.48115 -0.38232 3458 ft 220 kts 53°
2026-04-22 10:08 51.49159 -0.36276 4221 ft 239 kts 54°
2026-04-22 10:08 51.50247 -0.34208 5254 ft 247 kts 55°
2026-04-22 10:09 51.51367 -0.32052 5786 ft 253 kts 55°
2026-04-22 10:09 51.52343 -0.29733 5981 ft 249 kts 70°
2026-04-22 10:09 51.52917 -0.27128 6004 ft 247 kts 75°
2026-04-22 10:09 51.53621 -0.24607 6011 ft 252 kts 58°
2026-04-22 10:10 51.54983 -0.22781 6007 ft 264 kts 30°
2026-04-22 10:10 51.56819 -0.22268 6011 ft 278 kts 359°
2026-04-22 10:10 51.58733 -0.22947 6133 ft 282 kts 351°
2026-04-22 10:10 51.60648 -0.23606 6141 ft 281 kts 352°
2026-04-22 10:11 51.62507 -0.24646 6143 ft 286 kts 338°
2026-04-22 10:11 51.64249 -0.26222 6142 ft 288 kts 334°
2026-04-22 10:11 51.65984 -0.27859 6150 ft 289 kts 333°
2026-04-22 10:11 51.67724 -0.29525 6501 ft 296 kts 333°
2026-04-22 10:12 51.69483 -0.31218 7686 ft 293 kts 333°
2026-04-22 10:12 51.71238 -0.32915 8802 ft 296 kts 332°
2026-04-22 10:12 51.73013 -0.34632 9863 ft 300 kts 332°
2026-04-22 10:12 51.74818 -0.36380 10795 ft 309 kts 332°
2026-04-22 10:13 51.76734 -0.38233 11237 ft 333 kts 332°
2026-04-22 10:13 51.78799 -0.40225 11515 ft 357 kts 332°
2026-04-22 10:13 51.80996 -0.42342 11960 ft 375 kts 331°
2026-04-22 10:13 51.83257 -0.44534 12715 ft 382 kts 331°
2026-04-22 10:14 51.85549 -0.46762 13543 ft 387 kts 331°
2026-04-22 10:14 51.87872 -0.49023 14353 ft 392 kts 331°
2026-04-22 10:14 51.90218 -0.51312 15113 ft 395 kts 330°
2026-04-22 10:14 51.92581 -0.53620 15871 ft 399 kts 331°
2026-04-22 10:15 51.94965 -0.55947 16657 ft 402 kts 331°
2026-04-22 10:15 51.97371 -0.58297 17428 ft 405 kts 330°
2026-04-22 10:15 51.99788 -0.60657 18217 ft 407 kts 330°
2026-04-22 10:15 52.02225 -0.63040 18949 ft 410 kts 330°
2026-04-22 10:16 52.04665 -0.65428 19673 ft 410 kts 330°
2026-04-22 10:16 52.07100 -0.67816 20413 ft 408 kts 329°
2026-04-22 10:16 52.09527 -0.70205 21160 ft 407 kts 329°
2026-04-22 10:16 52.11942 -0.72587 21885 ft 406 kts 329°
2026-04-22 10:17 52.14358 -0.74970 22536 ft 406 kts 329°
2026-04-22 10:17 52.16779 -0.77361 23134 ft 408 kts 328°
2026-04-22 10:17 52.19213 -0.79765 23704 ft 410 kts 328°
2026-04-22 10:17 52.21659 -0.82188 24200 ft 412 kts 328°
2026-04-22 10:18 52.24114 -0.84624 24674 ft 414 kts 328°
2026-04-22 10:18 52.26587 -0.87075 25126 ft 416 kts 328°
2026-04-22 10:18 52.29067 -0.89536 25585 ft 418 kts 328°
2026-04-22 10:18 52.31557 -0.92010 26048 ft 420 kts 328°
2026-04-22 10:19 52.34056 -0.94501 26493 ft 422 kts 327°
2026-04-22 10:19 52.36565 -0.97007 26926 ft 424 kts 327°
2026-04-22 10:19 52.39088 -0.99526 27340 ft 425 kts 327°
2026-04-22 10:19 52.41616 -1.02051 27757 ft 427 kts 327°
2026-04-22 10:20 52.44155 -1.04595 28120 ft 429 kts 327°
2026-04-22 10:20 52.46707 -1.07158 28516 ft 431 kts 327°
2026-04-22 10:20 52.49265 -1.09732 28895 ft 432 kts 327°
2026-04-22 10:20 52.51833 -1.12314 29283 ft 433 kts 327°
2026-04-22 10:21 52.54401 -1.14894 29821 ft 431 kts 327°
2026-04-22 10:21 52.56952 -1.17462 30397 ft 429 kts 327°
2026-04-22 10:21 52.59488 -1.20020 30862 ft 427 kts 327°
2026-04-22 10:21 52.62014 -1.22575 31292 ft 426 kts 326°
2026-04-22 10:22 52.64538 -1.25133 31718 ft 426 kts 326°
2026-04-22 10:22 52.67057 -1.27687 32123 ft 426 kts 326°
2026-04-22 10:22 52.69581 -1.30245 32230 ft 425 kts 327°
2026-04-22 10:22 52.71282 -1.31970 32248 ft 424 kts 327°
2026-04-22 10:23 52.73795 -1.34517 32436 ft 424 kts 326°
2026-04-22 10:23 52.76305 -1.37071 32437 ft 424 kts 326°
2026-04-22 10:23 52.81320 -1.42198 32435 ft 424 kts 326°
2026-04-22 10:24 52.86337 -1.47346 32437 ft 425 kts 326°
2026-04-22 10:24 52.91366 -1.52501 32431 ft 425 kts 326°
2026-04-22 10:25 52.96398 -1.57678 32428 ft 426 kts 326°
2026-04-22 10:25 53.01423 -1.62883 32422 ft 426 kts 326°
2026-04-22 10:26 53.06588 -1.67726 32419 ft 429 kts 335°
2026-04-22 10:26 53.12198 -1.71185 32413 ft 430 kts 337°
2026-04-22 10:27 53.17810 -1.74657 32418 ft 430 kts 337°
2026-04-22 10:27 53.23414 -1.78151 32419 ft 430 kts 337°
2026-04-22 10:28 53.29025 -1.81663 32421 ft 430 kts 337°
2026-04-22 10:28 53.34635 -1.85176 32422 ft 431 kts 337°
2026-04-22 10:29 53.40202 -1.88667 32431 ft 415 kts 337°
2026-04-22 10:29 53.42848 -1.90319 32432 ft 397 kts 337°
2026-04-22 10:29 53.45391 -1.91908 32433 ft 385 kts 336°
2026-04-22 10:30 53.50368 -1.95049 32432 ft 380 kts 336°
2026-04-22 10:30 53.55320 -1.98201 32435 ft 381 kts 336°
2026-04-22 10:31 53.60276 -2.01352 32432 ft 381 kts 336°
2026-04-22 10:31 53.65238 -2.04490 32441 ft 381 kts 336°
2026-04-22 10:32 53.70207 -2.07654 32445 ft 382 kts 336°
2026-04-22 10:32 53.75171 -2.10831 32442 ft 381 kts 336°
2026-04-22 10:33 53.80104 -2.14142 32444 ft 382 kts 335°
2026-04-22 10:33 53.85018 -2.17555 32443 ft 382 kts 335°
2026-04-22 10:34 53.89939 -2.20955 32440 ft 382 kts 335°
2026-04-22 10:34 53.94868 -2.24330 32437 ft 382 kts 335°
2026-04-22 10:35 53.99801 -2.27712 32446 ft 382 kts 335°
2026-04-22 10:35 54.04790 -2.31147 32453 ft 397 kts 335°
2026-04-22 10:36 54.07371 -2.32937 32236 ft 403 kts 335°
2026-04-22 10:36 54.09978 -2.34748 32024 ft 405 kts 335°
2026-04-22 10:36 54.12593 -2.36565 31773 ft 406 kts 335°
2026-04-22 10:36 54.15210 -2.38382 31534 ft 407 kts 335°
2026-04-22 10:37 54.17839 -2.40202 31428 ft 407 kts 335°
2026-04-22 10:37 54.23096 -2.43847 31462 ft 408 kts 335°
2026-04-22 10:38 54.28367 -2.47527 31464 ft 409 kts 335°
2026-04-22 10:38 54.31004 -2.49374 31278 ft 410 kts 335°
2026-04-22 10:38 54.33644 -2.51222 31030 ft 410 kts 335°
2026-04-22 10:38 54.36291 -2.53072 30786 ft 411 kts 335°
2026-04-22 10:39 54.38942 -2.54926 30545 ft 411 kts 335°
2026-04-22 10:39 54.41591 -2.56786 30267 ft 412 kts 335°
2026-04-22 10:39 54.44245 -2.58656 29979 ft 413 kts 335°
2026-04-22 10:39 54.46904 -2.60534 29695 ft 413 kts 336°
2026-04-22 10:40 54.49566 -2.62417 29411 ft 413 kts 336°
2026-04-22 10:40 54.52226 -2.64303 29122 ft 413 kts 336°
2026-04-22 10:40 54.54881 -2.66187 28868 ft 413 kts 336°
2026-04-22 10:40 54.57535 -2.68069 28585 ft 412 kts 336°
2026-04-22 10:41 54.60176 -2.69941 28052 ft 409 kts 337°
2026-04-22 10:41 54.62802 -2.71802 27369 ft 407 kts 337°
2026-04-22 10:41 54.65417 -2.73656 26707 ft 406 kts 338°
2026-04-22 10:41 54.68023 -2.75508 26465 ft 406 kts 338°
2026-04-22 10:42 54.70644 -2.77377 26490 ft 409 kts 338°
2026-04-22 10:42 54.73236 -2.79233 26479 ft 396 kts 338°
2026-04-22 10:42 54.75731 -2.81026 26483 ft 381 kts 338°
2026-04-22 10:42 54.78155 -2.82771 26485 ft 375 kts 338°
2026-04-22 10:43 54.80557 -2.84503 26489 ft 374 kts 338°
2026-04-22 10:43 54.82962 -2.86237 26493 ft 374 kts 339°
2026-04-22 10:43 54.85371 -2.87968 26489 ft 374 kts 339°
2026-04-22 10:43 54.87777 -2.89697 26490 ft 375 kts 339°
2026-04-22 10:44 54.90199 -2.91441 25973 ft 381 kts 339°
2026-04-22 10:44 54.92643 -2.93203 25494 ft 379 kts 339°
2026-04-22 10:44 54.95073 -2.94964 25043 ft 377 kts 339°
2026-04-22 10:44 54.97483 -2.96717 24598 ft 374 kts 339°
2026-04-22 10:45 54.99879 -2.98461 24143 ft 372 kts 340°
2026-04-22 10:45 55.02253 -3.00192 23461 ft 368 kts 340°
2026-04-22 10:45 55.04601 -3.01902 22724 ft 363 kts 340°
2026-04-22 10:45 55.06926 -3.03595 22225 ft 362 kts 340°
2026-04-22 10:46 55.09251 -3.05289 21724 ft 361 kts 340°
2026-04-22 10:46 55.11565 -3.06978 21288 ft 359 kts 340°
2026-04-22 10:46 55.13869 -3.08660 20812 ft 358 kts 340°
2026-04-22 10:46 55.16157 -3.10333 20299 ft 358 kts 340°
2026-04-22 10:47 55.18455 -3.12012 19848 ft 353 kts 340°
2026-04-22 10:47 55.20705 -3.13663 19221 ft 349 kts 340°
2026-04-22 10:47 55.22935 -3.15300 18560 ft 346 kts 340°
2026-04-22 10:47 55.25150 -3.16930 17824 ft 344 kts 340°
2026-04-22 10:48 55.27348 -3.18553 17359 ft 341 kts 340°
2026-04-22 10:48 55.29598 -3.19793 16798 ft 339 kts 353°
2026-04-22 10:48 55.31902 -3.20088 16406 ft 328 kts
2026-04-22 10:48 55.34155 -3.19755 15873 ft 323 kts
2026-04-22 10:49 55.36389 -3.19404 15263 ft 321 kts
2026-04-22 10:49 55.38589 -3.19065 14796 ft 314 kts
2026-04-22 10:49 55.40767 -3.18726 14135 ft 314 kts
2026-04-22 10:49 55.42940 -3.18382 13480 ft 312 kts
2026-04-22 10:50 55.45093 -3.18046 12852 ft 309 kts
2026-04-22 10:50 55.47224 -3.17715 12222 ft 306 kts
2026-04-22 10:50 55.49325 -3.17390 11655 ft 301 kts
2026-04-22 10:50 55.51401 -3.17066 11125 ft 297 kts
2026-04-22 10:51 55.53451 -3.16743 10608 ft 294 kts
2026-04-22 10:51 55.55481 -3.16425 10073 ft 293 kts
2026-04-22 10:51 55.57513 -3.16107 9550 ft 295 kts
2026-04-22 10:51 55.59545 -3.15791 9102 ft 292 kts
2026-04-22 10:52 55.61558 -3.15473 8678 ft 288 kts
2026-04-22 10:52 55.63561 -3.15153 8176 ft 289 kts
2026-04-22 10:52 55.65535 -3.14917 7932 ft 278 kts
2026-04-22 10:52 55.67379 -3.15726 7549 ft 273 kts 336°
2026-04-22 10:53 55.68855 -3.17809 7046 ft 273 kts 309°
2026-04-22 10:53 55.69689 -3.20752 6901 ft 269 kts 284°
2026-04-22 10:53 55.69811 -3.24035 6811 ft 267 kts 258°
2026-04-22 10:53 55.69316 -3.27184 6730 ft 265 kts 249°
2026-04-22 10:54 55.68749 -3.30296 6643 ft 265 kts 249°
2026-04-22 10:54 55.68184 -3.33401 6561 ft 264 kts 249°
2026-04-22 10:54 55.67619 -3.36505 6483 ft 265 kts 249°
2026-04-22 10:54 55.67053 -3.39613 6393 ft 264 kts 249°
2026-04-22 10:55 55.66490 -3.42704 6318 ft 264 kts 249°
2026-04-22 10:55 55.65924 -3.45797 6223 ft 264 kts 249°
2026-04-22 10:55 55.65356 -3.48890 6147 ft 264 kts 249°
2026-04-22 10:55 55.64907 -3.52022 5991 ft 259 kts 263°
2026-04-22 10:56 55.65033 -3.55109 5920 ft 247 kts 284°
2026-04-22 10:56 55.65681 -3.57836 5796 ft 236 kts 304°
2026-04-22 10:56 55.66707 -3.59988 5670 ft 227 kts 321°
2026-04-22 10:56 55.67881 -3.61861 5564 ft 226 kts 321°
2026-04-22 10:57 55.69042 -3.63728 5441 ft 225 kts 321°
2026-04-22 10:57 55.70229 -3.65535 5317 ft 224 kts 323°
2026-04-22 10:57 55.71431 -3.67286 5192 ft 223 kts 324°
2026-04-22 10:57 55.72632 -3.69015 5068 ft 222 kts 324°
2026-04-22 10:58 55.73828 -3.70739 4947 ft 221 kts 325°
2026-04-22 10:58 55.75019 -3.72454 4828 ft 220 kts 325°
2026-04-22 10:58 55.76174 -3.74237 4706 ft 220 kts 321°
2026-04-22 10:58 55.77265 -3.76137 4606 ft 220 kts 319°
2026-04-22 10:59 55.78348 -3.78046 4535 ft 217 kts 323°
2026-04-22 10:59 55.79634 -3.79004 4462 ft 191 kts
2026-04-22 10:59 55.80806 -3.78320 4411 ft 173 kts 44°
2026-04-22 10:59 55.81509 -3.76682 4358 ft 166 kts 62°
2026-04-22 11:00 55.82111 -3.74934 4261 ft 165 kts 62°
2026-04-22 11:00 55.82711 -3.73192 4168 ft 165 kts 62°
2026-04-22 11:00 55.83309 -3.71455 4090 ft 165 kts 61°
2026-04-22 11:00 55.83911 -3.69707 4019 ft 165 kts 61°
2026-04-22 11:01 55.84507 -3.67973 3944 ft 164 kts 61°
2026-04-22 11:01 55.85100 -3.66248 3796 ft 161 kts 60°
2026-04-22 11:01 55.85485 -3.65127 3647 ft 160 kts 60°
2026-04-22 11:01 55.86060 -3.63452 3426 ft 158 kts 60°
2026-04-22 11:02 55.86635 -3.61773 3199 ft 156 kts 61°
2026-04-22 11:02 55.87190 -3.60156 2988 ft 154 kts 60°
2026-04-22 11:02 55.87746 -3.58531 2786 ft 154 kts 60°
2026-04-22 11:02 55.88304 -3.56900 2560 ft 154 kts 61°
2026-04-22 11:03 55.88858 -3.55282 2357 ft 153 kts 60°
2026-04-22 11:03 55.89398 -3.53701 2133 ft 144 kts 61°
2026-04-22 11:03 55.89905 -3.52218 1935 ft 133 kts 60°
2026-04-22 11:03 55.90373 -3.50847 1755 ft 127 kts 61°
2026-04-22 11:04 55.90831 -3.49504 1573 ft 125 kts 62°
2026-04-22 11:04 55.91281 -3.48184 1410 ft 124 kts 60°
2026-04-22 11:04 55.91727 -3.46873 1232 ft 123 kts 62°
2026-04-22 11:04 55.92173 -3.45565 1046 ft 123 kts 61°
2026-04-22 11:05 55.92622 -3.44258 868 ft 123 kts 59°
2026-04-22 11:05 55.93067 -3.42946 721 ft 124 kts 61°
2026-04-22 11:05 55.93513 -3.41635 549 ft 125 kts 60°
2026-04-22 11:05 55.93958 -3.40322 389 ft 124 kts 61°
2026-04-22 11:06 55.94407 -3.39007 201 ft 123 kts 60°
2026-04-22 11:06 55.94835 -3.37733 113 ft 110 kts 60°
2026-04-22 11:06 55.95115 -3.36910 114 ft 47 kts 59°
2026-04-22 11:06 55.95250 -3.36510 111 ft 19 kts 58°
2026-04-22 11:07 55.95219 -3.36379 114 ft 12 kts 146°
2026-04-22 11:07 55.95152 -3.36310 115 ft 11 kts 161°
2026-04-22 11:07 55.95092 -3.36408 113 ft 15 kts 240°
2026-04-22 11:07 55.95030 -3.36589 114 ft 19 kts 239°
2026-04-22 11:08 55.94959 -3.36798 115 ft 15 kts 238°
2026-04-22 11:08 55.94874 -3.36786 116 ft 11 kts 155°
2026-04-22 11:08 55.94804 -3.36777 116 ft 11 kts 179°
2026-04-22 11:08 55.94730 -3.36737 116 ft 12 kts 172°
2026-04-22 11:09 55.94642 -3.36734 116 ft 13 kts 179°
2026-04-22 11:09 55.94584 -3.36733 116 ft 4 kts 179°
2026-04-22 11:09 55.94575 -3.36702 114 ft 4 kts 105°
2026-04-22 11:09 55.94572 -3.36654 116 ft 1 kts 91°
2026-04-22 11:10 55.94572 -3.36628 116 ft 2 kts 90°
2026-04-22 11:10 55.94572 -3.36624 116 ft 0 kts 89°